Location: Gleizolles
(44.4833°N, 6.7667°E)
Time: 03:01:26
(UTC+00:00)

X-37B - Pass Details

Date: 11 December 2021
Orbit: 334 x 337 km, 45.0° (Epoch: 11 January)

Event Time Altitude Azimuth Distance (km) Brightness Sun altitude
Rises 16:58:42 0° 255° (WSW) 2,100 6.4 -11.3°
Reaches altitude 10° 17:00:42 10° 254° (WSW) 1,265 4.7 -11.6°
Maximum altitude 17:03:32 80° 167° (SSE) 343 0.3 -12.1°
Enters shadow 17:05:04 24° 83° (E) 750 1.4 -12.3°
